EW2027 Weather Reports


Display with metric or nautical units.
time (UTC)temp
F
wind
direction
speed
MPH
gust
MPH
rain 1hr
in
rain 24hr
in
rain mn
in
humidity
%
barometer
mb
20260903090703 80 153 3.0 5.0 0.00 0.00 0.00 72 1015.4
20260903090203 80 163 2.0 6.0 0.00 0.00 0.00 72 1015.4
20260903083703 81 165 2.0 5.0 0.00 0.00 0.00 70 1015.5
20260903080204 82 167 2.0 6.0 0.00 0.00 0.00 68 1015.3
20260903070703 84 174 3.0 9.0 0.00 0.00 0.00 64 1015.4
20260903070203 84 156 3.0 12.0 0.00 0.00 0.00 64 1015.4
20260903063704 85 172 4.0 10.0 0.00 0.00 0.00 63 1015.2
20260903060702 85 161 5.0 10.0 0.00 0.00 0.00 61 1015.1
20260903060203 85 166 5.0 12.0 0.00 0.00 0.00 61 1015.2
20260903053703 85 166 5.0 10.0 0.00 0.00 0.00 59 1014.9
20260903053203 85 153 5.0 12.0 0.00 0.00 0.00 59 1014.9
20260903050703 85 160 3.0 6.0 0.00 0.00 0.00 58 1014.8
20260903043703 85 163 3.0 7.0 0.00 0.00 0.00 56 1014.7
20260903043203 86 164 4.0 7.0 0.00 0.00 0.00 56 1014.7
20260903040703 86 159 2.0 5.0 0.00 0.00 0.00 55 1014.8
20260903040203 86 157 2.0 6.0 0.00 0.00 0.00 54 1014.8
20260903033203 88 167 2.0 6.0 0.00 0.00 0.00 52 1014.7
20260903030703 88 150 4.0 8.0 0.00 0.00 0.00 51 1014.6
20260903030203 88 160 3.0 8.0 0.00 0.00 0.00 51 1014.6
20260903023702 89 144 2.0 3.0 0.00 0.00 0.00 50 1014.5
20260903020704 91 149 3.0 5.0 0.00 0.00 0.00 48 1014.2
20260903020203 91 149 3.0 7.0 0.00 0.00 0.00 47 1014.1
20260903013703 92 141 3.0 5.0 0.00 0.00 0.00 46 1013.8
20260903013203 92 138 3.0 8.0 0.00 0.00 0.00 46 1013.9
20260903010703 94 131 5.0 9.0 0.00 0.00 0.00 44 1013.6
20260903010204 94 135 4.0 9.0 0.00 0.00 0.00 44 1013.6
20260903003703 96 134 5.0 8.0 0.00 0.00 0.00 42 1013.6
20260903003203 96 152 4.0 10.0 0.00 0.00 0.00 41 1013.5
20260903000702 97 160 5.0 13.0 0.00 0.00 0.00 39 1013.5
20260903000204 97 129 6.0 13.0 0.00 0.00 0.00 39 1013.5
20260902233203 98 146 6.0 12.0 0.00 0.00 0.00 39 1013.5
20260902230703 99 165 6.0 12.0 0.00 0.00 0.00 39 1013.6
20260902230203 99 169 6.0 14.0 0.00 0.00 0.00 39 1013.6
20260902223703 99 145 6.0 14.0 0.00 0.00 0.00 38 1013.6
20260902223203 99 152 6.0 13.0 0.00 0.00 0.00 39 1013.6
20260902220703 100 196 3.0 10.0 0.00 0.00 0.00 39 1013.8
20260902220203 100 122 6.0 12.0 0.00 0.00 0.00 39 1013.8
20260902213702 100 164 7.0 14.0 0.00 0.00 0.00 40 1014.1
20260902210703 100 171 5.0 12.0 0.00 0.00 0.00 40 1014.5
20260902210203 99 161 5.0 15.0 0.00 0.00 0.00 40 1014.5
20260902203203 99 149 6.0 13.0 0.00 0.00 0.00 40 1014.9
20260902200702 99 132 7.0 15.0 0.00 0.00 0.00 41 1015.2
20260902200203 99 170 3.0 20.0 0.00 0.00 0.00 43 1015.4
20260902193703 98 170 4.0 9.0 0.00 0.00 0.00 44 1015.8
20260902193203 98 150 6.0 12.0 0.00 0.00 0.00 45 1015.8
20260902190703 98 141 5.0 8.0 0.00 0.00 0.00 47 1016.1
20260902183703 97 147 6.0 14.0 0.00 0.00 0.00 47 1016.6
20260902180703 96 162 3.0 7.0 0.00 0.00 0.00 48 1017.1
20260902173702 96 180 3.0 12.0 0.00 0.00 0.00 52 1017.4
20260902173203 95 158 5.0 14.0 0.00 0.00 0.00 50 1017.5
20260902170704 95 160 4.0 9.0 0.00 0.00 0.00 53 1017.9
20260902170202 95 172 4.0 13.0 0.00 0.00 0.00 51 1017.9
20260902163703 94 146 4.0 9.0 0.00 0.00 0.00 54 1018.1
20260902163203 93 185 5.0 16.0 0.00 0.00 0.00 54 1018.2
20260902160203 92 174 5.0 12.0 0.00 0.00 0.00 55 1018.2
20260902153703 91 209 3.0 8.0 0.00 0.00 0.00 57 1018.5
20260902153203 91 205 4.0 13.0 0.00 0.00 0.00 57 1018.5
20260902150703 89 202 3.0 9.0 0.00 0.00 0.00 60 1018.5
20260902150203 88 180 5.0 13.0 0.00 0.00 0.00 61 1018.6
20260902143703 87 192 4.0 9.0 0.00 0.00 0.00 62 1018.5
20260902143203 87 210 3.0 10.0 0.00 0.00 0.00 64 1018.5
20260902140703 85 181 3.0 8.0 0.00 0.00 0.00 66 1018.5
20260902133703 82 155 5.0 10.0 0.00 0.00 0.00 69 1018.4
20260902133203 82 173 3.0 8.0 0.00 0.00 0.00 70 1018.5
20260902130703 80 161 3.0 6.0 0.00 0.00 0.00 72 1018.5
20260902130203 79 167 2.0 6.0 0.00 0.00 0.00 72 1018.4
20260902123703 78 163 2.0 5.0 0.00 0.00 0.00 72 1018.2
20260902123203 78 161 2.0 6.0 0.00 0.00 0.00 72 1018.2
20260902120204 79 152 2.0 3.0 0.00 0.00 0.00 71 1017.7
20260902113703 79 151 1.0 3.0 0.00 0.00 0.00 70 1017.6
20260902113203 79 151 2.0 5.0 0.00 0.00 0.00 70 1017.5
20260902110703 79 151 1.0 3.0 0.00 0.00 0.00 70 1017.4
20260902103704 78 151 1.0 2.0 0.00 0.00 0.00 71 1017.5
20260902103203 79 152 1.0 5.0 0.00 0.00 0.00 70 1017.5
20260902100703 79 126 2.0 3.0 0.00 0.00 0.00 70 1017.3
20260902100203 78 123 1.0 2.0 0.00 0.00 0.00 71 1017.3
20260902093704 78 124 0.0 1.0 0.00 0.00 0.00 70 1017.3
20260902093203 78 124 0.0 2.0 0.00 0.00 0.00 70 1017.3